Regional Weather Roundup
Issued by NWS

Home | Current Version | Previous Version | Text Only | Print | Product List | Glossary Off
Versions: 1 2 3 4 5 6 7 8 9 10 11 12 13 14 15 16 17 18 19 20 21 22 23 24 25 26 27 28 29 30 31 32 33 34 35 36 37 38 39 40 41 42 43 44 45 46 47 48 49 50

000
ASUS45 KSLC 030410
RWRUT
UTAH REGIONAL WEATHER ROUNDUP
NATIONAL WEATHER SERVICE SALT LAKE CITY UT
1000 PM MDT SUN AUG 02 2015

UTZ001>011-023>025-030500-

NORTHERN UTAH

CITY           SKY/WX    TMP DP  RH WIND       PRES   REMARKS
BRIGHAM CITY   CLOUDY    81  41  24 SW6       29.97R
HILL AFB       CLOUDY    76  48  37 S13       30.00S
LOGAN          CLEAR     80  43  26 CALM      29.95R
OGDEN          CLOUDY    78  48  34 S9        29.97S
PROVO AIRPORT  CLOUDY    70  55  60 S13       30.02F
SALT LAKE CITY CLOUDY    77  50  38 S13       29.97R
VERNAL         LGT RAIN  73  51  46 SW9       30.13R
WENDOVER       CLOUDY    81  46  30 S15       29.94S
HEBER CITY     CLOUDY    70  45  40 N7        30.06F
WEST JORDAN    CLEAR     73  50  43 S20       30.01R

$$

UTZ012>022-026-027-030500-

SOUTHERN/CENTRAL UTAH

CITY           SKY/WX    TMP DP  RH WIND       PRES   REMARKS
BLANDING       CLOUDY    64  62  91 CALM      30.23R
CEDAR CITY     CLEAR     65  45  48 MISG      30.09R
DELTA          CLOUDY    70  49  47 CALM      30.07R
HANKSVILLE     CLOUDY    66  61  82 CALM      30.07S
MILFORD        CLOUDY    73  48  41 NW6       30.05S
MOAB/CYNLANDS  RAIN      62  60  93 N3        30.06S FOG
PRICE          CLOUDY    63  58  83 N6        30.14F
ST GEORGE      CLOUDY    88  46  23 CALM      29.89R

$$

REGIONAL REPORTS     COLORADO/ARIZONA

CITY           SKY/WX    TMP DP  RH WIND       PRES   REMARKS
CRAIG, CO      LGT RAIN  66  32  28 S22G40    30.13F
GRAND JUNCTION CLOUDY    66  58  75 SE7       30.11S
RIFLE          LGT RAIN  62  59  90 NE5       30.21S
MONTROSE       CLOUDY    63  60  90 W5        30.19R
CORTEZ         CLEAR     65  60  84 E9        30.15S
PAGE, AZ       PTCLDY    74  58  57 W3        30.04S
GRAND CANYON   CLEAR     58  53  84 CALM      30.20S
KINGMAN        PTCLDY    84  45  25 NE3       29.93R
FLAGSTAFF      CLEAR     59  54  83 CALM      30.24R

$$

REGIONAL REPORTS    NEVADA/IDAHO/WYOMING

CITY           SKY/WX    TMP DP  RH WIND       PRES   REMARKS
LAS VEGAS, NV  PTCLDY    97  48  18 NE7       29.76R HX  93
ELY            CLOUDY    68  42  38 N5        30.15F
ELKO           CLOUDY    73  47  39 S8        30.05R
POCATELLO, ID  CLEAR     74  38  27 SE5       29.92S
BURLEY         MOCLDY    70  55  59 SW6       29.88R
EVANSTON, WY   CLOUDY    68  42  38 SW13      30.17R
ROCK SPRINGS   CLOUDY    73  33  23 NE6       30.13R
KEMMERER       CLOUDY   N/A N/A N/A S7        30.16S

$$


USA.gov is the U.S. government's official web portal to all federal, state and local government web resources and services.